Temperature
7 9 9 8 7 7 8 8 8 8 6 6 7 7 7 5 4 4 4 3 3 3 3 2 3 3 3 3 3 3 4 4 4 4 4 4 5 5 5 6 6 6 6 6
9 8 6 6 6 6 7 7 8 7 6 6 6 6 6 5 4 4 4 3 3 3 2 2 2 2 3 3 3 3 3 3 3 4 4 4 4 4 5 5 5 5 6 6
8 7 5 5 6 6 7 7 7 6 6 5 5 7 7 6 4 3 3 3 2 2 2 2 2 2 2 2 2 2 2 3 3 3 3 3 3 4 4 5 5 5 5 5
6 5 5 5 5 5 7 6 5 5 6 7 5 8 8 6 5 4 3 2 2 1 1 1 1 1 1 1 2 2 2 2 2 2 3 3 3 3 4 4 4 4 5 5
6 4 5 5 5 4 5 4 4 4 5 6 5 6 8 6 5 5 4 2 2 1 1 1 1 1 1 1 1 1 2 2 2 2 2 2 2 3 3 3 3 4 4 4
5 3 4 4 4 4 4 4 4 4 5 6 6 6 8 7 5 5 4 2 1 0 0 0 0 1 1 1 1 1 1 1 2 2 2 2 2 2 2 3 3 3 3 4
5 4 3 3 4 4 4 5 7 7 7 8 4 5 7 6 4 4 3 2 1 0 0 -0 -0 0 0 0 0 0 1 1 1 1 1 1 2 2 2 2 2 3 3 3
6 6 4 3 3 4 4 5 6 7 8 8 4 5 7 4 2 1 1 1 0 -0 -0 -0 -0 -0 -0 -0 -0 -0 0 0 1 1 1 1 1 1 2 2 2 2 2 2
6 6 2 2 1 3 4 4 3 5 4 4 6 6 5 3 3 2 1 0 -0 -1 -1 -1 -1 -1 -1 -1 -1 -0 -0 0 0 0 1 1 1 1 1 1 1 1 2 2
3 4 3 2 1 1 2 3 3 4 5 6 7 6 6 4 3 2 1 0 -0 -1 -1 -1 -1 -1 -1 -1 -1 -1 -1 -0 0 0 0 0 1 1 1 1 1 1 1 1
2 3 3 2 2 3 2 2 2 4 4 5 6 7 5 4 3 2 1 0 -1 -1 -1 -1 -1 -1 -1 -1 -1 -1 -1 -1 -0 -0 -0 -0 0 0 0 0 0 1 1 1
1 2 3 3 0 -0 1 2 2 3 3 3 4 5 2 2 1 0 -0 -1 -1 -2 -2 -2 -2 -2 -2 -1 -1 -1 -1 -1 -1 -1 -1 -1 -1 -1 -1 -0 -0 -0 0 0
0 1 3 4 2 -0 -0 -0 -1 0 2 2 3 5 1 0 -0 -1 -1 -1 -2 -2 -2 -2 -2 -2 -2 -2 -2 -2 -2 -1 -1 -1 -1 -1 -1 -1 -1 -1 -1 -1 -0 -0
0 0 2 4 4 2 0 -1 -2 -1 1 2 2 3 2 1 0 -1 -2 -2 -2 -3 -3 -3 -3 -3 -3 -2 -2 -2 -2 -2 -2 -2 -2 -2 -2 -2 -2 -1 -1 -1 -1 -1
-0 1 0 1 1 0 -0 -1 -2 -2 0 1 2 1 1 1 -1 -1 -2 -2 -3 -3 -4 -4 -3 -3 -3 -3 -3 -3 -3 -2 -2 -2 -2 -2 -2 -2 -2 -2 -2 -2 -2 -1
-1 -0 -1 -1 -0 -1 -1 -1 -1 -2 -2 -1 -1 -0 0 -2 -2 -3 -3 -3 -4 -4 -4 -4 -4 -4 -3 -3 -3 -3 -3 -3 -3 -3 -3 -3 -3 -3 -3 -3 -3 -2 -2 -2
-1 -1 -1 1 -0 -1 0 -1 -2 -2 -2 -2 -1 -0 -1 -2 -3 -4 -4 -4 -4 -4 -4 -4 -4 -4 -4 -4 -4 -4 -3 -3 -3 -3 -3 -3 -3 -3 -3 -3 -3 -3 -3 -2
-3 -2 -1 -0 -0 0 2 -2 -3 -3 -3 -3 -3 -3 -3 -4 -4 -5 -4 -5 -4 -4 -5 -5 -5 -4 -4 -4 -4 -4 -4 -4 -4 -4 -4 -4 -4 -3 -4 -3 -3 -3 -3 -3
-3 -2 -1 -1 0 1 1 -2 -3 -3 -2 -3 -4 -4 -4 -5 -5 -4 -4 -5 -5 -5 -5 -5 -5 -5 -5 -4 -4 -4 -4 -4 -4 -4 -4 -4 -4 -4 -4 -4 -4 -4 -3 -3
-4 -3 -2 -2 -1 0 1 -3 -4 -3 -1 -3 -5 -5 -5 -5 -3 -3 -5 -5 -6 -5 -5 -5 -5 -5 -5 -5 -5 -5 -4 -4 -4 -5 -5 -4 -4 -4 -4 -4 -4 -4 -4 -4
-4 -4 -3 -2 -1 0 -1 -5 -4 -1 -1 -4 -5 -5 -6 -6 -5 -6 -6 -6 -6 -6 -6 -6 -6 -6 -6 -5 -5 -5 -5 -5 -5 -5 -5 -5 -5 -5 -5 -4 -4 -4 -4 -4
-3 -3 -3 -3 -2 -1 -4 -4 -3 -2 -4 -5 -6 -6 -6 -6 -6 -7 -7 -7 -7 -7 -6 -6 -6 -6 -6 -6 -6 -6 -6 -6 -6 -6 -5 -5 -5 -5 -5 -5 -5 -5 -5 -5
-3 -3 -2 -2 -1 -3 -5 -5 -5 -5 -6 -6 -6 -6 -7 -7 -7 -7 -7 -7 -7 -7 -7 -7 -7 -6 -6 -6 -6 -6 -6 -6 -6 -6 -6 -6 -6 -6 -6 -6 -5 -5 -5 -5
-4 -6 -4 -4 -3 -4 -5 -5 -6 -6 -6 -6 -7 -7 -7 -7 -7 -8 -8 -7 -7 -7 -7 -7 -7 -7 -7 -7 -7 -7 -7 -7 -7 -7 -7 -6 -6 -6 -6 -6 -6 -6 -6 -6
-4 -6 -5 -4 -4 -5 -6 -6 -6 -6 -7 -7 -7 -7 -7 -8 -8 -8 -8 -8 -8 -8 -8 -8 -8 -8 -7 -7 -7 -8 -7 -7 -7 -7 -7 -7 -7 -7 -7 -7 -7 -7 -7 -7
-6 -6 -5 -3 -5 -6 -6 -6 -7 -7 -7 -8 -8 -8 -8 -8 -8 -8 -8 -8 -8 -8 -8 -8 -8 -8 -8 -8 -8 -8 -8 -8 -8 -8 -8 -8 -8 -8 -8 -8 -8 -7 -7 -7
Wind_Speed
2 1 0 1 1 2 3 5 6 5 2 5 9 12 10 6 6 6 5 5 4 4 3 3 3 2 2 3 3 2 1 1 1 1 1 2 1 1 1 1 2 2 2 1
1 0 1 1 1 1 3 5 5 4 3 5 8 12 8 5 6 5 6 5 5 4 4 3 3 2 2 2 2 2 1 1 1 1 2 2 2 2 1 1 2 1 2 1
1 1 0 1 1 3 4 5 5 6 6 4 6 7 6 3 3 4 4 5 5 4 4 4 3 3 2 2 2 2 2 2 2 1 1 1 1 2 1 1 2 1 1 1
1 0 1 1 2 3 5 3 5 5 5 4 2 6 6 4 3 3 4 4 5 4 4 4 4 4 3 3 3 3 3 2 2 2 3 3 3 3 2 2 2 2 2 1
1 0 1 2 2 3 3 3 4 4 5 5 4 6 6 2 4 4 4 5 5 4 4 4 5 4 4 3 3 3 3 2 2 2 3 4 4 3 2 2 2 2 2 2
0 0 1 2 2 2 2 2 2 3 3 5 4 5 6 3 4 4 4 5 5 5 4 4 5 4 4 3 3 3 3 2 2 2 3 4 5 4 3 4 3 3 2 2
1 1 1 1 1 1 1 2 3 3 3 4 2 6 7 2 3 4 5 5 5 5 4 4 5 4 4 4 4 3 3 2 2 3 3 3 3 4 4 4 4 3 3 2
3 3 1 0 1 2 2 2 2 4 5 5 3 7 4 1 3 5 5 5 6 6 5 5 5 5 5 5 4 4 3 3 3 3 3 3 3 3 3 5 4 4 3 3
3 3 1 1 2 2 2 2 2 3 3 5 6 6 5 3 4 5 5 6 6 6 6 6 5 5 5 5 5 4 4 4 3 3 3 3 3 3 4 5 5 4 4 3
2 4 2 1 1 0 2 1 2 3 4 6 7 6 4 3 5 5 6 7 7 7 7 7 6 6 5 5 4 5 4 3 3 3 3 3 3 4 5 4 4 4 4 4
1 3 2 2 3 3 2 2 3 3 4 5 7 5 0 3 4 5 6 7 8 8 8 7 6 6 5 4 4 4 3 3 3 3 3 3 2 3 3 3 4 4 4 4
1 2 4 4 0 1 3 3 4 4 4 5 6 6 3 2 5 6 8 8 8 8 8 7 6 5 4 4 4 4 4 4 3 3 2 2 2 2 2 2 3 3 4 4
2 2 4 3 2 2 3 3 4 3 3 6 7 7 2 4 6 8 9 9 9 8 8 7 6 5 5 4 4 4 4 4 3 2 2 2 2 2 2 2 3 3 3 3
2 4 7 9 6 2 4 5 5 6 6 9 12 14 10 9 10 11 11 11 9 8 7 7 7 6 5 4 4 4 4 4 3 2 2 2 2 2 3 3 3 3 3 3
2 5 7 11 10 7 9 9 8 10 11 11 13 13 14 12 11 12 11 10 10 9 8 8 7 7 6 5 4 4 4 4 3 2 2 3 3 3 3 3 3 3 4 4
2 4 4 7 7 7 9 11 12 12 12 13 16 17 12 10 9 10 11 10 10 10 10 8 8 7 6 5 5 4 4 4 3 3 3 3 3 3 3 3 3 3 4 4
4 4 4 7 4 6 9 8 9 7 7 8 11 9 8 10 11 11 11 11 11 11 10 9 8 7 6 5 5 5 5 4 3 3 3 3 3 3 3 3 3 4 4 4
4 3 3 5 3 7 3 2 4 6 6 7 8 8 9 10 11 9 8 9 11 11 9 8 6 6 6 5 5 4 4 3 3 4 3 3 3 3 3 3 4 4 3 3
4 4 3 3 5 8 4 2 2 4 6 4 7 10 10 10 9 6 5 7 9 9 8 7 6 5 5 5 5 4 4 4 4 4 4 4 4 4 4 4 4 4 3 4
1 3 4 4 5 6 3 1 1 2 4 1 3 7 8 7 7 7 8 9 9 8 7 6 6 5 5 5 4 3 4 4 4 5 5 4 4 4 4 4 4 4 4 4
2 3 6 7 7 8 2 0 2 3 4 3 4 5 5 5 6 7 9 9 8 8 7 7 5 5 5 5 4 4 4 5 5 5 5 4 4 4 4 4 3 3 3 3
5 4 5 5 6 7 2 2 3 4 3 3 4 5 5 6 7 7 7 8 8 7 7 6 5 5 5 5 4 4 5 6 5 5 4 4 4 3 3 3 3 3 3 4
6 6 4 7 6 3 2 4 4 3 4 4 5 5 5 6 6 7 7 7 7 7 6 6 5 6 6 5 5 5 6 6 5 5 4 4 4 4 3 3 3 2 2 3
4 3 5 6 9 7 6 5 5 5 5 6 5 5 4 5 6 7 6 6 6 6 6 6 6 6 6 6 6 6 6 6 5 4 4 4 3 3 3 3 2 2 2 3
5 4 5 8 8 6 4 5 6 6 5 5 5 5 5 5 6 6 6 6 6 6 6 6 5 6 7 7 6 6 6 6 5 5 4 4 3 3 3 3 2 3 3 3
4 5 5 6 4 5 7 6 6 6 6 6 5 5 5 5 6 6 6 6 6 6 6 6 6 6 7 7 6 7 6 5 5 5 5 4 3 3 3 3 2 3 3 4
Wind_Direction
22 86 54 315 271 278 245 248 266 273 280 273 260 271 275 256 253 262 261 263 268 279 286 300 313 333 345 353 347 336 298 251 228 197 201 201 234 231 209 112 121 117 112 109
149 108 321 272 226 262 255 263 274 282 288 274 276 277 268 245 239 257 268 261 262 280 295 301 309 322 328 335 329 314 289 265 243 232 228 212 231 215 188 152 130 129 128 134
173 51 278 249 264 283 270 260 277 292 303 251 284 269 228 220 230 274 280 280 282 279 283 286 289 295 296 303 300 288 272 263 252 244 210 188 227 213 187 176 162 134 143 134
166 222 219 283 273 268 270 271 276 279 281 275 288 281 249 238 264 288 295 292 290 288 286 286 283 279 277 277 280 276 264 259 254 238 222 209 219 219 219 201 192 173 171 168
205 206 265 265 286 253 269 303 276 256 249 266 233 254 264 229 272 292 305 297 295 291 283 286 286 279 279 273 268 262 262 257 246 230 221 212 214 217 218 196 190 188 192 189
233 187 277 284 295 250 287 281 226 209 232 250 223 241 268 227 255 280 293 304 301 292 290 291 292 291 291 289 279 268 266 267 257 237 227 215 209 207 216 212 203 204 210 191
287 176 123 318 271 196 301 297 289 262 245 254 181 249 260 255 278 282 292 303 306 296 290 290 292 291 288 284 279 271 264 269 265 239 233 219 211 215 226 227 213 213 217 212
282 258 169 336 280 254 239 252 266 277 278 286 241 250 267 264 298 307 311 310 311 305 297 290 287 283 280 279 272 264 256 260 263 249 236 229 220 227 242 238 225 216 218 217
266 266 81 3 333 268 215 214 309 273 278 274 259 269 283 279 297 309 316 318 309 308 304 296 291 291 288 279 273 265 257 252 254 255 246 237 232 233 241 229 224 221 221 215
265 271 262 301 216 49 318 174 188 226 269 276 274 264 277 298 298 310 313 310 309 311 309 303 297 296 291 282 276 270 263 260 271 271 266 259 252 246 241 232 224 221 224 220
231 253 269 236 225 234 178 190 230 237 254 267 281 278 343 298 315 307 311 316 314 309 304 298 295 293 292 292 286 286 289 289 283 277 268 261 250 241 240 239 237 225 224 221
195 249 267 258 80 333 232 227 208 240 245 242 268 279 62 346 337 323 318 318 315 310 306 304 301 298 298 298 300 298 293 286 278 268 263 265 261 249 249 250 250 240 226 223
172 214 279 261 203 190 234 235 236 253 255 242 252 271 44 347 336 330 318 314 312 309 309 308 307 304 299 295 293 290 291 291 288 270 257 266 274 276 269 266 258 248 237 229
193 228 240 264 294 261 250 240 222 219 244 255 252 272 295 314 320 322 321 318 311 307 305 303 304 305 304 301 299 298 298 297 289 272 268 270 275 275 270 265 261 249 240 233
204 251 252 267 275 267 259 257 237 228 246 256 271 276 287 306 313 315 317 317 314 310 308 303 304 306 307 305 305 305 304 303 293 273 270 276 277 272 268 264 260 251 241 239
225 254 271 275 262 261 266 263 248 246 253 258 271 279 294 312 315 316 317 317 315 312 308 306 307 306 306 305 304 301 300 303 295 279 276 280 278 277 272 263 255 251 244 240
213 224 257 275 288 283 271 250 230 236 240 241 257 277 313 316 318 318 316 316 314 312 312 311 307 301 303 303 300 298 300 305 303 294 295 294 283 280 278 275 264 256 256 244
206 211 239 280 293 261 282 104 206 235 255 241 259 284 302 308 310 306 310 315 315 314 315 315 313 313 314 308 305 306 310 310 308 304 305 304 292 288 288 283 275 264 258 248
220 211 232 251 269 275 274 196 204 238 279 244 260 290 307 318 309 308 329 326 319 318 316 315 314 315 320 318 311 314 322 323 319 314 311 309 295 287 285 280 276 264 255 250
117 217 232 236 256 264 303 86 221 229 269 268 285 299 313 325 319 326 343 333 326 325 326 326 326 327 328 325 322 319 324 324 319 314 310 309 301 285 280 280 279 267 255 253
181 205 226 237 248 265 310 150 186 251 303 335 298 297 300 296 294 313 324 329 330 328 330 333 334 334 331 330 330 328 327 322 319 318 315 314 308 299 289 288 286 270 256 252
200 204 215 220 237 260 128 152 220 284 322 298 296 296 292 289 300 310 317 323 329 331 334 337 337 334 336 340 340 336 328 324 326 325 324 323 319 313 308 300 294 279 257 250
219 220 226 217 241 300 200 235 271 303 292 296 300 300 293 293 300 310 315 318 324 326 329 332 332 330 336 340 335 327 323 325 326 328 326 325 325 321 316 303 295 291 278 261
232 237 239 254 260 269 262 264 282 281 283 295 296 293 286 286 296 305 311 317 321 323 325 329 332 332 332 333 331 323 323 325 323 325 326 324 319 320 321 312 301 293 285 271
253 208 239 255 273 290 266 275 289 293 293 297 299 293 286 288 297 303 306 311 315 319 323 326 326 322 322 328 327 327 330 329 326 325 325 322 317 314 311 310 306 295 290 289
224 216 227 259 272 273 287 295 297 293 292 293 295 299 303 296 294 302 305 307 311 314 319 322 321 320 322 327 328 331 333 330 326 325 324 321 317 312 308 306 307 307 297 312
Height
1521 1520 1519 1522 1523 1522 1520 1518 1516 1516 1520 1520 1513 1511 1509 1511 1511 1509 1508 1507 1506 1506 1506 1505 1504 1503 1502 1502 1501 1501 1501 1501 1501 1501 1501 1501 1502 1502 1503 1504 1506 1507 1509 1511
1519 1521 1526 1527 1526 1524 1521 1518 1514 1516 1520 1519 1513 1508 1506 1507 1507 1507 1506 1505 1504 1503 1502 1502 1501 1501 1500 1499 1499 1499 1498 1499 1499 1499 1499 1499 1499 1499 1500 1501 1503 1505 1506 1508
1519 1525 1528 1526 1524 1522 1519 1517 1516 1518 1518 1517 1516 1501 1500 1503 1505 1505 1504 1503 1502 1501 1500 1499 1499 1498 1498 1497 1497 1497 1496 1496 1496 1496 1497 1497 1497 1497 1498 1498 1500 1502 1503 1505
1524 1527 1527 1525 1523 1522 1516 1520 1521 1520 1517 1508 1515 1499 1492 1498 1501 1502 1501 1500 1499 1499 1498 1497 1496 1495 1495 1495 1494 1494 1494 1493 1493 1494 1494 1494 1494 1494 1495 1496 1497 1499 1500 1501
1523 1527 1526 1525 1524 1524 1520 1523 1522 1520 1517 1513 1512 1509 1488 1497 1496 1497 1498 1498 1497 1497 1496 1495 1494 1493 1492 1492 1492 1491 1491 1491 1491 1491 1491 1492 1492 1492 1493 1494 1495 1496 1497 1498
1527 1529 1529 1527 1527 1526 1525 1523 1521 1520 1515 1507 1507 1506 1485 1490 1493 1494 1496 1496 1496 1495 1494 1493 1492 1491 1490 1489 1489 1488 1488 1487 1487 1487 1488 1488 1489 1490 1490 1491 1492 1493 1494 1495
1524 1527 1529 1529 1526 1526 1524 1517 1507 1504 1501 1495 1512 1507 1490 1492 1495 1495 1495 1495 1494 1493 1492 1490 1489 1487 1486 1486 1485 1485 1485 1484 1484 1484 1485 1485 1486 1486 1487 1488 1489 1490 1490 1491
1519 1517 1527 1528 1527 1525 1523 1520 1512 1505 1495 1491 1507 1498 1488 1495 1496 1495 1495 1494 1493 1491 1489 1488 1486 1484 1484 1483 1482 1481 1481 1481 1481 1481 1481 1482 1482 1483 1484 1485 1485 1486 1487 1488
1520 1518 1529 1530 1530 1527 1523 1521 1523 1517 1518 1512 1493 1491 1491 1493 1493 1493 1493 1492 1491 1489 1487 1485 1483 1482 1481 1480 1479 1478 1478 1478 1478 1478 1478 1478 1479 1479 1480 1481 1482 1483 1484 1485
1529 1526 1526 1530 1530 1530 1528 1525 1523 1517 1509 1497 1487 1487 1485 1490 1490 1492 1492 1491 1489 1487 1485 1483 1481 1479 1478 1477 1476 1476 1475 1474 1474 1474 1474 1474 1474 1475 1476 1476 1477 1478 1480 1481
1532 1529 1525 1527 1526 1523 1528 1527 1523 1517 1514 1503 1490 1483 1490 1491 1492 1492 1492 1490 1489 1486 1483 1481 1479 1477 1476 1474 1474 1472 1471 1471 1470 1470 1470 1471 1470 1472 1473 1473 1474 1475 1476 1477
1532 1529 1522 1522 1529 1530 1526 1524 1523 1516 1512 1514 1501 1491 1494 1495 1495 1494 1492 1490 1488 1485 1483 1480 1477 1475 1474 1472 1471 1470 1469 1468 1468 1468 1468 1467 1467 1468 1469 1470 1470 1471 1472 1473
1533 1531 1519 1512 1524 1530 1528 1528 1528 1525 1518 1510 1502 1490 1495 1495 1495 1494 1492 1490 1487 1484 1481 1478 1475 1473 1472 1470 1469 1468 1467 1466 1465 1465 1465 1465 1464 1465 1466 1467 1467 1467 1468 1469
1532 1530 1523 1510 1507 1518 1523 1526 1528 1525 1514 1504 1499 1491 1492 1494 1494 1493 1491 1488 1486 1483 1480 1477 1474 1472 1470 1468 1466 1465 1464 1464 1463 1462 1462 1461 1461 1462 1462 1463 1464 1464 1465 1465
1531 1527 1525 1521 1519 1521 1520 1521 1523 1522 1512 1505 1495 1497 1493 1494 1495 1493 1490 1487 1484 1481 1478 1475 1472 1470 1467 1466 1464 1463 1462 1461 1461 1460 1459 1458 1459 1459 1459 1459 1460 1460 1461 1462
1530 1527 1526 1521 1519 1520 1518 1514 1515 1516 1513 1509 1503 1498 1494 1495 1494 1491 1489 1486 1482 1479 1476 1473 1470 1468 1466 1464 1463 1462 1461 1460 1459 1458 1457 1456 1456 1456 1456 1456 1456 1457 1457 1457
1528 1527 1523 1511 1516 1516 1505 1505 1508 1508 1506 1506 1500 1496 1495 1493 1492 1490 1487 1484 1481 1478 1474 1471 1469 1467 1465 1463 1462 1461 1459 1457 1456 1455 1454 1454 1454 1453 1453 1453 1453 1453 1453 1454
1527 1525 1523 1515 1514 1506 1497 1505 1505 1504 1502 1503 1500 1497 1496 1494 1491 1488 1486 1483 1479 1476 1473 1470 1468 1466 1464 1463 1461 1459 1457 1456 1454 1453 1452 1452 1451 1450 1450 1449 1449 1450 1450 1450
1524 1523 1520 1516 1508 1497 1496 1503 1504 1503 1498 1498 1498 1496 1494 1492 1488 1484 1483 1481 1478 1475 1471 1469 1467 1465 1463 1461 1459 1457 1455 1454 1452 1451 1450 1449 1448 1447 1447 1447 1447 1447 1447 1447
1525 1524 1520 1516 1509 1498 1493 1502 1502 1503 1494 1495 1496 1494 1493 1491 1485 1482 1481 1479 1476 1473 1470 1467 1465 1463 1462 1460 1458 1456 1454 1452 1450 1449 1448 1447 1446 1445 1444 1444 1444 1444 1444 1444
1524 1523 1520 1514 1508 1495 1499 1501 1502 1497 1491 1494 1493 1493 1492 1490 1488 1485 1480 1477 1475 1472 1469 1467 1464 1462 1460 1458 1456 1454 1452 1450 1449 1447 1446 1444 1443 1442 1441 1441 1441 1441 1440 1440
1515 1514 1516 1512 1508 1499 1500 1500 1499 1495 1494 1493 1491 1490 1489 1487 1484 1482 1479 1476 1473 1471 1468 1466 1463 1461 1459 1457 1455 1452 1450 1449 1447 1445 1443 1442 1441 1440 1439 1438 1438 1438 1437 1437
1511 1508 1505 1505 1500 1497 1497 1496 1495 1494 1493 1491 1490 1488 1487 1484 1481 1479 1477 1474 1472 1470 1467 1465 1462 1460 1458 1456 1453 1451 1449 1447 1445 1443 1441 1440 1439 1438 1436 1436 1435 1434 1434 1433
1507 1508 1506 1503 1496 1495 1495 1493 1493 1492 1490 1489 1487 1486 1484 1482 1479 1477 1475 1472 1470 1468 1466 1463 1461 1458 1456 1454 1452 1450 1448 1445 1443 1441 1439 1438 1436 1435 1434 1433 1432 1432 1431 1430
1502 1504 1502 1498 1494 1493 1491 1491 1490 1489 1487 1486 1484 1483 1481 1479 1477 1475 1472 1470 1468 1466 1464 1462 1459 1457 1455 1452 1450 1448 1446 1443 1441 1439 1437 1436 1435 1433 1432 1431 1430 1429 1429 1428
1499 1500 1498 1492 1491 1492 1489 1488 1487 1486 1484 1483 1481 1480 1478 1477 1475 1473 1470 1468 1466 1463 1461 1459 1457 1455 1452 1450 1448 1446 1444 1442 1439 1437 1436 1434 1433 1431 1430 1429 1428 1427 1426 1425